[[{"header":{"parameterUnit":"m.s-1","parameterCategory":1,"la1":30.2991,"la2":30.254,"lo1":-89.0895,"lo2":-89.0444,"dy":0.0017,"dx":0.0017,"nx":28,"ny":28,"refTime":"2023-10-28T09:00:00:Z","depth":0,"parameterNumber":2,"parameterNumberName":"U-component_of_WINDS"},"data":[0,0,0,0,0,0,0,0,0,0,0,0,0,0,0,0,0,0,0,0,0,0,0,0,0,0,0,0,0,0,0,0,0,0,0,0,0,0,0,0,0,0,0,0,0,0,0,0,0,0,0,0,0,0,0,0,0,0,-2.8913,-2.8912,0,-2.8846,-2.8845,-2.8844,-2.8728,-2.8726,-2.8724,-2.8722,-2.8655,-2.8655,-2.8656,0,0,0,0,0,0,0,0,0,0,0,0,0,-2.8944,-2.8944,-2.8913,-2.8912,-2.8911,-2.8846,-2.8845,-2.8844,-2.8728,-2.8726,-2.8723,-2.8721,-2.8655,-2.8655,-2.8656,0,0,0,0,0,0,0,0,0,0,0,0,0,-2.8909,-2.8944,-2.8913,-2.8846,-2.8839,-2.8846,-2.8845,-2.8844,-2.8729,-2.8726,-2.8722,-2.8719,-2.8655,-2.8655,-2.8656,-2.8724,0,0,-2.8657,-2.8657,0,0,0,0,0,0,0,0,-2.8911,-2.8908,-2.8856,-2.885,-2.8843,-2.8792,-2.8831,-2.8804,-2.873,-2.8771,-2.8721,-2.8718,-2.8703,-2.87,-2.8694,-2.8721,-2.8718,-2.8657,-2.8657,-2.8657,-2.8657,0,0,0,0,0,0,0,-2.8914,-2.891,-2.8886,-2.8856,-2.8847,-2.882,-2.8811,-2.8825,-2.8756,-2.8767,-2.8758,-2.8752,-2.8699,-2.8694,-2.8692,-2.8717,-2.8657,-2.8657,-2.8657,-2.8658,-2.8796,-2.8799,0,0,0,0,0,0,-2.8926,-2.8913,-2.8888,-2.8884,-2.8869,-2.8822,-2.8812,-2.8812,-2.8756,-2.8744,-2.8755,-2.8747,-2.8695,-2.8691,-2.8689,-2.8764,-2.8657,-2.8658,-2.8658,-2.8792,-2.8796,-2.88,0,0,0,0,0,0,-2.8927,-2.8924,-2.8891,-2.8896,-2.889,-2.8825,-2.8825,-2.8812,-2.8807,-2.8747,-2.8734,-2.8762,-2.8692,-2.8688,-2.8716,-2.8761,-2.8658,-2.8658,-2.8788,-2.8794,-2.8798,-2.8917,0,0,0,0,0,0,-2.8928,-2.8926,-2.895,-2.8898,-2.889,-2.8919,-2.8828,-2.8813,-2.8808,-2.8796,-2.875,-2.874,-2.8689,-2.8716,-2.8716,-2.8759,-2.8659,-2.8784,-2.8791,-2.8797,-2.8909,-2.8925,-2.894,0,0,0,0,0,-2.893,-2.8987,-2.8952,-2.895,-2.8919,-2.8922,-2.8917,-2.8858,-2.8812,-2.8836,-2.8798,-2.8741,-2.8756,-2.872,-2.8719,-2.8763,-2.8781,-2.8789,-2.8796,-2.8902,-2.8922,-2.8939,0,0,0,0,0,0,-2.9047,-2.8979,-2.8939,-2.8981,-2.8958,-2.8902,-2.8931,-2.8881,-2.8871,-2.8861,-2.8789,-2.8779,-2.8816,-2.8792,-2.8753,-2.8826,-2.876,-2.8768,-2.884,-2.8859,-2.8874,-2.8879,-2.8659,0,0,0,0,0,-2.9078,-2.9084,-2.9025,-2.9067,-2.9058,-2.8997,-2.8996,-2.8952,-2.8925,-2.8915,-2.8878,-2.8855,-2.8854,-2.8855,-2.8852,-2.8905,-2.8893,-2.8935,-2.8951,-2.8964,-2.8971,-2.8997,-2.9015,-2.8825,-2.8825,-2.8825,0,0,-2.9141,-2.9105,-2.9113,-2.909,-2.9067,-2.9076,-2.8989,-2.9003,-2.9009,-2.8917,-2.894,-2.8913,-2.8882,-2.8923,-2.8939,-2.8904,-2.9021,-2.8974,-2.8985,-2.8985,-2.9007,-2.9025,-2.9041,-2.8831,-2.883,-2.8829,0,0,-2.9261,-2.9235,-2.9267,-2.9246,-2.9211,-2.917,-2.9179,-2.913,-2.9108,-2.913,-2.9061,-2.9069,-2.9069,-2.905,-2.904,-2.9154,-2.9102,-2.9155,-2.9236,-2.9263,-2.9278,-2.9291,-2.9331,-2.9346,-2.9163,-2.9164,-2.9164,0,-2.9345,-2.9355,-2.929,-2.9307,-2.9299,-2.9216,-2.9249,-2.9232,-2.9199,-2.9195,-2.9157,-2.9156,-2.9129,-2.9164,-2.9192,-2.9187,-2.9194,-2.916,-2.9281,-2.9293,-2.9304,-2.9341,-2.9357,-2.917,-2.9169,-2.9169,-2.9168,0,-2.9459,-2.9467,-2.9497,-2.9467,-2.9462,-2.9488,-2.9427,-2.9431,-2.9388,-2.9352,-2.9375,-2.9341,-2.9329,-2.9334,-2.9293,-2.9363,-2.9342,-2.9294,-2.9225,-2.933,-2.9364,-2.9378,-2.918,-2.9177,-2.9175,-2.9174,0,0,-2.9649,-2.9583,-2.9595,-2.958,-2.9537,-2.9542,-2.9565,-2.9552,-2.9556,-2.9537,-2.9553,-2.9556,-2.951,-2.95,-2.9455,-2.9479,-2.9571,-2.9427,-2.9425,-2.9454,-2.9646,-2.9682,-2.97,-2.9536,-2.9539,-2.9541,-2.9648,0,-2.9759,-2.9792,-2.9735,-2.9781,-2.9788,-2.971,-2.9729,-2.9705,-2.9672,-2.9674,-2.9638,-2.964,-2.958,-2.9573,-2.9593,-2.9556,-2.9608,-2.9547,-2.9551,-2.9552,-2.956,-2.9718,-2.9756,-2.9859,-2.9661,-2.9664,-2.9665,0,-2.9891,-2.9878,-2.9925,-2.9879,-2.9879,-2.9898,-2.9881,-2.9884,-2.9856,-2.983,-2.9819,-2.9767,-2.9786,-2.9721,-2.9746,-2.9706,-2.9704,-2.9686,-2.9689,-2.9686,-2.9614,-2.9718,-2.989,-2.9906,-2.9686,-2.9684,-2.9682,0,-3.0025,-3.0018,-3.0045,-3.0035,-2.9982,-2.9997,-2.9976,-2.9944,-2.994,-2.9927,-2.9924,-2.9913,-2.9907,-2.9901,-2.9847,-2.9805,-2.9879,-2.9809,-2.9858,-2.986,-2.9876,-2.9875,-3.0049,-2.9877,-2.9877,-2.9877,-2.9877,0,-3.0153,-3.0184,-3.0104,-3.0121,-3.0154,-3.0089,-3.0124,-3.0095,-3.0068,-3.0078,-3.0011,-3.0022,-2.9951,-2.9955,-2.9914,-2.9941,-2.9939,-2.9919,-2.9907,-2.9924,-2.9926,-2.9921,-2.9912,-2.9881,-2.988,-2.9879,-2.9878,0,-3.0306,-3.0254,-3.0278,-3.0227,-3.0214,-3.0241,-3.0197,-3.0211,-3.0174,-3.0188,-3.0187,-3.013,-3.0131,-3.0077,-3.0067,-3.004,-3.0084,-3.006,-3.0093,-3.0085,-3.0136,-3.0132,-3.0312,-3.0332,-3.0149,-3.0151,-3.0152,0,-3.039,-3.0413,-3.0364,-3.0365,-3.0347,-3.0351,-3.0347,-3.0284,-3.0283,-3.0253,-3.027,-3.0265,-3.0258,-3.0263,-3.0221,-3.0213,-3.0188,-3.0251,-3.0186,-3.0202,-3.0187,-3.0186,-3.0188,-3.0265,-3.0267,-3.0269,-3.0271,0,-3.0545,-3.0519,-3.0514,-3.0502,-3.0498,-3.0486,-3.0469,-3.0474,-3.0406,-3.0408,-3.0407,-3.0402,-3.0392,-3.0388,-3.0373,-3.0351,-3.03,-3.0292,-3.0302,-3.0319,-3.0337,-3.0327,-3.013,-3.0288,-3.0286,-3.0285,-3.0284,-3.0283,-3.0666,-3.0682,-3.065,-3.0648,-3.0628,-3.0614,-3.0624,-3.0589,-3.0587,-3.0574,-3.0538,-3.0544,-3.0515,-3.0489,-3.0473,-3.0477,-3.0445,-3.0461,-3.0464,-3.0469,-3.0478,-3.0338,-3.0474,-3.0473,-3.0473,-3.0472,-3.0472,0,-3.0816,-3.0792,-3.0791,-3.0769,-3.0767,-3.0719,-3.0698,-3.07,-3.0706,-3.0684,-3.0678,-3.0679,-3.0675,-3.0633,-3.0624,-3.0636,-3.0612,-3.0635,-3.0633,-3.0629,-3.0508,-3.0499,-3.0655,-3.0655,-3.0655,-3.0655,-3.0655,-3.0655,-3.0894,-3.0918,-3.0888,-3.0903,-3.0879,-3.0883,-3.0876,-3.0862,-3.0844,-3.0847,-3.0844,-3.0816,-3.0786,-3.0775,-3.077,-3.0758,-3.0757,-3.0789,-3.0769,-3.0656,-3.0638,-3.0621,-3.0612,-3.0789,-3.079,-3.0889,-3.089,-3.0891]},{"header":{"parameterUnit":"m.s-1","parameterCategory":1,"la1":30.2991,"la2":30.254,"lo1":-89.0895,"lo2":-89.0444,"dy":0.0017,"dx":0.0017,"nx":28,"ny":28,"refTime":"2023-10-28T09:00:00:Z","depth":0,"parameterNumber":3,"parameterNumberName":"V-component_of_WINDS"},"data":[0,0,0,0,0,0,0,0,0,0,0,0,0,0,0,0,0,0,0,0,0,0,0,0,0,0,0,0,0,0,0,0,0,0,0,0,0,0,0,0,0,0,0,0,0,0,0,0,0,0,0,0,0,0,0,0,0,0,0.8783,0.8782,0,0.8647,0.8646,0.8644,0.8666,0.8668,0.8671,0.8673,0.8529,0.8523,0.8517,0,0,0,0,0,0,0,0,0,0,0,0,0,0.9059,0.9054,0.8783,0.8782,0.878,0.8647,0.8646,0.8644,0.8665,0.8668,0.8671,0.8674,0.8531,0.8524,0.8517,0,0,0,0,0,0,0,0,0,0,0,0,0,0.8933,0.9052,0.8784,0.8775,0.8773,0.8648,0.8645,0.8643,0.8665,0.8668,0.8672,0.8675,0.8533,0.8524,0.8516,0.8389,0,0,0.8488,0.8484,0,0,0,0,0,0,0,0,0.894,0.8923,0.8778,0.8775,0.8773,0.8677,0.869,0.8558,0.8664,0.8706,0.8673,0.8677,0.8575,0.8563,0.8529,0.8382,0.8376,0.8487,0.8482,0.8478,0.8475,0,0,0,0,0,0,0,0.8949,0.8929,0.8729,0.8776,0.8773,0.8777,0.8763,0.8665,0.8622,0.8702,0.8704,0.8687,0.8574,0.8538,0.8526,0.8374,0.8487,0.8479,0.8474,0.847,0.8117,0.8113,0,0,0,0,0,0,0.896,0.8936,0.8734,0.8725,0.8867,0.8769,0.8753,0.8704,0.8623,0.8614,0.8685,0.8689,0.8552,0.8537,0.8521,0.8368,0.8478,0.8469,0.8464,0.8121,0.8116,0.8112,0,0,0,0,0,0,0.8966,0.8942,0.8739,0.8831,0.8805,0.8761,0.8705,0.87,0.8663,0.861,0.8602,0.8656,0.8554,0.8534,0.8422,0.8363,0.8465,0.8457,0.8126,0.812,0.8114,0.806,0,0,0,0,0,0,0.8974,0.8944,0.8896,0.883,0.88,0.8643,0.8702,0.8694,0.8648,0.8653,0.8581,0.8572,0.8555,0.8436,0.8413,0.8352,0.845,0.8131,0.8123,0.8116,0.8066,0.8053,0.8041,0,0,0,0,0,0.8984,0.8885,0.8894,0.8869,0.874,0.864,0.8623,0.8607,0.8644,0.8594,0.856,0.8574,0.8374,0.8424,0.8399,0.8334,0.8134,0.8125,0.8117,0.8072,0.8055,0.8041,0,0,0,0,0,0,0.8943,0.8876,0.8885,0.8762,0.8706,0.8644,0.8581,0.8589,0.8521,0.8528,0.851,0.8493,0.838,0.8346,0.8404,0.8208,0.8259,0.8245,0.8234,0.8217,0.8205,0.8214,0.8442,0,0,0,0,0,0.8921,0.8846,0.8791,0.8688,0.866,0.8625,0.8581,0.8574,0.8515,0.8491,0.8449,0.8391,0.8315,0.8264,0.8191,0.8063,0.8047,0.8006,0.7994,0.7983,0.797,0.79,0.7881,0.8083,0.8083,0.8083,0,0,0.8872,0.8826,0.8779,0.8679,0.8635,0.8557,0.8605,0.8521,0.8463,0.8478,0.837,0.8337,0.8271,0.8151,0.8095,0.8119,0.7912,0.7972,0.7964,0.7956,0.7889,0.787,0.7853,0.8077,0.8078,0.8079,0,0,0.8743,0.8701,0.8611,0.8567,0.8501,0.8479,0.8458,0.8394,0.8373,0.8265,0.8275,0.8206,0.8075,0.8027,0.7986,0.7842,0.7852,0.7819,0.7751,0.7682,0.7666,0.7652,0.76,0.7581,0.7807,0.7807,0.7807,0,0.869,0.8574,0.8563,0.8478,0.8433,0.8446,0.8354,0.8311,0.8224,0.8192,0.8221,0.8058,0.8014,0.7883,0.7848,0.7815,0.7789,0.7826,0.767,0.7655,0.7642,0.7592,0.7572,0.7803,0.7803,0.7804,0.7804,0,0.8512,0.8432,0.8367,0.8285,0.8233,0.8144,0.8119,0.8067,0.8066,0.8041,0.7931,0.7879,0.7796,0.7765,0.7761,0.7633,0.765,0.7674,0.7725,0.7619,0.7572,0.7553,0.7798,0.7799,0.78,0.7801,0,0,0.8351,0.8266,0.8242,0.8205,0.8135,0.8072,0.7985,0.7905,0.7861,0.7802,0.7727,0.7618,0.7641,0.7594,0.7586,0.7526,0.7414,0.7557,0.7556,0.7532,0.7269,0.725,0.7228,0.7422,0.7418,0.7415,0.7274,0,0.8214,0.8061,0.8049,0.7911,0.7837,0.7849,0.7773,0.7721,0.7696,0.7629,0.7601,0.7523,0.756,0.7532,0.7474,0.744,0.7361,0.7451,0.7351,0.7348,0.7365,0.7203,0.7182,0.7051,0.7256,0.7253,0.725,0,0.8034,0.7971,0.7825,0.7767,0.7735,0.7667,0.7594,0.753,0.7472,0.7458,0.7407,0.7408,0.7317,0.7373,0.7248,0.7309,0.7268,0.7246,0.724,0.7229,0.7291,0.7186,0.7009,0.6989,0.7221,0.7224,0.7226,0,0.7929,0.7808,0.7706,0.7674,0.7604,0.7555,0.7523,0.7469,0.7423,0.7359,0.7328,0.7254,0.7213,0.7156,0.7136,0.7179,0.7011,0.7066,0.6996,0.6996,0.6958,0.696,0.6771,0.6935,0.6935,0.6935,0.6936,0,0.7777,0.7687,0.7658,0.7595,0.7495,0.7483,0.7384,0.7354,0.7306,0.7237,0.7244,0.7178,0.7157,0.7088,0.7072,0.6971,0.6952,0.6938,0.6934,0.6936,0.6937,0.6907,0.6915,0.693,0.6931,0.6932,0.6933,0,0.7642,0.762,0.7509,0.7452,0.7436,0.7364,0.7315,0.7254,0.7232,0.7144,0.7123,0.7086,0.7005,0.6981,0.6883,0.6873,0.6753,0.6759,0.6773,0.6772,0.6704,0.671,0.6487,0.6457,0.6641,0.664,0.6638,0,0.7546,0.7477,0.7414,0.7369,0.7336,0.7263,0.7216,0.7202,0.7153,0.7083,0.703,0.6951,0.6886,0.6756,0.672,0.6646,0.6648,0.6576,0.6637,0.6641,0.6646,0.6649,0.6642,0.6563,0.6561,0.6559,0.6558,0,0.7376,0.7369,0.7302,0.7232,0.7176,0.712,0.7065,0.7028,0.7006,0.695,0.6869,0.6819,0.6721,0.6641,0.6566,0.6532,0.654,0.654,0.6519,0.6519,0.653,0.6523,0.674,0.6544,0.6546,0.6547,0.6547,0.6548,0.7256,0.7196,0.7143,0.7069,0.7027,0.6976,0.6917,0.6888,0.682,0.6739,0.6735,0.6647,0.6591,0.6492,0.6454,0.6384,0.6405,0.6376,0.6368,0.6361,0.6355,0.6543,0.6371,0.6371,0.6371,0.6372,0.6372,0,0.7086,0.7053,0.6985,0.691,0.6852,0.6868,0.6809,0.6759,0.6681,0.663,0.6567,0.6474,0.6398,0.6357,0.6281,0.6233,0.6235,0.6213,0.6215,0.6207,0.6341,0.6365,0.6213,0.6213,0.6213,0.6213,0.6213,0.6213,0.6991,0.689,0.6877,0.6756,0.6724,0.6638,0.6603,0.6556,0.6516,0.6411,0.6349,0.6324,0.6277,0.6198,0.6128,0.6118,0.6089,0.6065,0.6057,0.6182,0.6198,0.6213,0.6236,0.6059,0.6059,0.593,0.5928,0.5927]}]]